933  
ASUS41 KRLX 241610  
RWRRLX  
WEST VIRGINIA REGIONAL WEATHER ROUNDUP  
NATIONAL WEATHER SERVICE CHARLESTON WV  
1200 PM EDT TUE APR 24 2018  
 
NOTE: "FAIR" INDICATES FEW OR NO CLOUDS BELOW 12,000 FEET WITH NO  
SIGNIFICANT WEATHER AND/OR S TO VISIBILITY
.  
 
WVZ003-241700-  
NORTHERN PANHANDLE OF WEST VIRGINIA  
 
CITY SKY/WX TMP DP RH WIND PRES REMARKS
 
WHEELING LGT RAIN 50 46 86 E15 30.08F  

 
 
WVZ009-241700-  
NORTHWEST WEST VIRGINIA  
 
CITY SKY/WX TMP DP RH WIND PRES REMARKS
 
PARKERSBURG LGT RAIN 52 50 93 E9 30.03F FOG  

 
 
WVZ006-241700-  
WESTERN WEST VIRGINIA  
 
CITY SKY/WX TMP DP RH WIND PRES REMARKS
 
HUNTINGTON LGT RAIN 55 51 86 NE6 29.94F  

 
 
WVZ015-241700-  
WEST CENTRAL WEST VIRGINIA  
 
CITY SKY/WX TMP DP RH WIND PRES REMARKS
 
CHARLESTON CLOUDY 58 54 86 VRB6 29.94F  

 
 
WVZ022-031-241700-  
NORTH CENTRAL WEST VIRGINIA  
 
CITY SKY/WX TMP DP RH WIND PRES REMARKS
 
CLARKSBURG LGT RAIN 55 49 80 E7G18 30.04F  
MORGANTOWN LGT RAIN 53 48 83 E12G21 30.06F  

 
 
WVZ025-035-042-045-241700-  
SOUTHERN WEST VIRGINIA  
 
CITY SKY/WX TMP DP RH WIND PRES REMARKS
 
BECKLEY LGT RAIN 52 50 93 E18G30 29.96F FOG  
LOGAN PTSUNNY 59 50 72 SE10G22 29.92F  
BLUEFIELD LGT RAIN 49 47 93 E12G18 29.98F FOG  
LEWISBURG LGT RAIN 49 48 95 NE8 30.03F  

 
 
WVZ047-241700-  
NORTHERN MOUNTAINS OF WEST VIRGINIA  
 
CITY SKY/WX TMP DP RH WIND PRES REMARKS
 
ELKINS LGT RAIN 50 45 83 E5 30.05F  

 
 
WVZ052-241700-  
EASTERN PANHANDLE OF WEST VIRGINIA  
 
CITY SKY/WX TMP DP RH WIND PRES REMARKS
 
MARTINSBURG LGT RAIN 55 48 77 SE5 30.21F  
PETERSBURG LGT RAIN 49 47 93 NW6 30.16F  

 
 
 
CLICK HERE TO GO TO PREVIOUS BULLETINS.

The Nexlab WV Page
The Nexlab OH Page
The Nexlab KY Page
The Nexlab VA Page Main Text Page